Regional Weather Roundup
Issued by NWS

Home | Current Version | Previous Version | Graphics & Text | Print | Product List | Glossary Off
Versions: 1 2 3 4 5 6 7 8 9 10 11 12 13 14 15 16 17 18 19 20 21 22 23 24 25 26 27 28 29 30 31 32 33 34 35 36 37 38 39 40 41 42 43 44 45 46 47 48 49 50

000
ASUS43 KTOP 282059
RWRKS

WEATHER ROUNDUP FOR KANSAS
NATIONAL WEATHER SERVICE GOODLAND KS
300 PM CST FRI NOV 28 2014

NOTE:  "FAIR" INDICATES FEW OR NO CLOUDS BELOW 12,000 FEET WITH NO
SIGNIFICANT WEATHER AND/OR OBSTRUCTIONS TO VISIBILITY.

KSZ001>006-013>018-027>032-041>047-282200-
NORTHWEST KANSAS

CITY           SKY/WX    TMP DP  RH WIND       PRES   REMARKS
$$

KSZ061>065-074>080-084>089-282200-
SOUTHWEST KANSAS

CITY           SKY/WX    TMP DP  RH WIND       PRES   REMARKS
DODGE CITY     SUNNY     78  14   9 W13       29.79F
ELKHART          N/A     73  25  16 S10         N/A
$$

KSZ066>073-081>083-090>101-282200-
SOUTHEAST KANSAS

CITY           SKY/WX    TMP DP  RH WIND       PRES   REMARKS
CHANUTE        SUNNY     62  35  36 S22G28    29.85F
COFFEYVILLE    SUNNY     64  36  35 S21G28    29.88F
HUTCHINSON     SUNNY     63  34  33 S18       29.80F
MEDICINE LODGE   N/A     63  34  33 S14       29.81F
PARSONS        SUNNY     64  36  35 S15G26    29.88F
$$

KSZ007>012-019>026-033>040-048>060-102>105-282200-
NORTHEAST KANSAS

CITY           SKY/WX    TMP DP  RH WIND       PRES   REMARKS
LAWRENCE       PTSUNNY   60  33  36 S10       29.80F
$$



USA.gov is the U.S. government's official web portal to all federal, state and local government web resources and services.